Theta_e
317 316 315 312 317 312 309 315 311 313 312 317 316 316 317 315 313 314 313 312 311 310 311 312 314 315 315 317 317 318 321 323 326 328 327 327 328 329 328 329 330 330 329 329
320 318 311 309 314 315 314 315 314 313 313 315 314 314 313 312 311 313 313 311 310 310 310 311 313 314 315 316 316 317 319 321 323 326 327 327 327 327 328 328 328 329 329 329
317 312 312 311 314 317 316 315 314 311 314 312 312 309 311 309 309 309 309 310 309 310 310 310 311 312 313 314 315 316 317 317 319 321 325 326 325 326 326 326 327 327 327 326
316 313 312 312 313 315 314 313 313 315 314 312 308 305 302 302 303 309 309 308 309 308 308 309 310 312 314 313 313 313 314 314 314 317 323 324 324 324 325 325 326 326 326 325
314 313 312 313 313 314 313 315 316 314 314 315 312 313 307 307 306 307 307 307 308 308 309 310 310 311 311 311 311 311 312 313 313 315 320 323 323 323 324 324 324 324 324 324
313 311 311 312 311 315 313 315 315 314 314 317 312 311 307 304 304 309 309 308 307 308 308 307 308 308 309 310 312 313 313 314 314 314 317 321 322 322 322 322 322 322 322 322
314 314 312 310 312 313 313 314 315 317 318 313 308 311 309 305 306 307 308 309 309 306 305 304 305 306 307 306 307 310 312 313 317 319 320 321 322 322 322 322 322 322 322 322
316 317 313 311 312 315 315 312 311 311 313 312 308 312 310 308 307 307 307 307 306 307 306 306 306 304 304 305 306 307 307 307 308 311 318 323 324 322 321 322 322 322 322 323
318 316 310 311 312 312 316 317 309 310 300 309 311 309 309 308 307 308 307 307 307 307 305 302 301 303 303 303 303 303 304 303 304 305 307 307 311 318 322 322 322 322 323 323
310 313 309 311 312 312 314 313 316 314 313 313 311 310 311 310 308 307 307 306 306 301 301 301 301 301 301 302 302 302 302 302 302 302 303 303 304 305 306 307 308 312 315 318
311 311 310 311 314 316 316 316 315 315 313 314 311 310 306 308 307 309 307 305 303 301 301 300 299 300 300 301 301 302 302 303 303 302 302 302 302 303 303 303 303 303 305 306
313 312 314 314 311 311 314 315 316 317 317 316 310 311 306 305 305 306 307 303 301 301 300 299 299 300 300 300 300 299 299 300 300 301 302 302 302 302 302 303 303 302 302 302
310 312 316 314 310 311 315 314 314 314 310 316 316 313 306 307 307 304 305 302 301 301 300 300 299 299 299 298 298 297 296 296 297 298 299 300 299 300 300 300 301 302 302 302
302 310 312 312 312 311 316 315 314 315 317 315 315 312 308 307 306 304 304 303 303 302 301 300 299 298 297 296 295 294 294 293 295 296 296 296 297 297 298 298 300 301 301 301
306 311 309 309 310 310 312 314 314 315 315 315 314 312 311 309 306 304 303 303 304 303 302 299 298 295 295 293 292 291 290 290 290 291 291 291 291 292 294 294 294 295 295 297
306 311 309 309 308 309 311 311 313 315 314 314 313 310 309 309 305 305 303 304 305 303 299 297 295 294 292 290 288 288 287 288 289 288 288 289 289 289 289 289 290 291 292 293
301 308 311 311 307 307 309 310 311 311 312 312 314 312 310 307 305 306 304 304 304 301 296 294 292 290 287 285 285 284 284 285 285 284 285 285 285 285 287 288 288 289 290 291
302 302 304 309 306 311 308 305 306 308 310 310 311 310 310 310 302 297 295 304 302 295 290 288 287 285 282 282 280 282 282 282 282 282 281 282 282 283 285 286 286 287 288 289
301 302 303 310 309 304 307 305 306 305 307 307 308 310 309 299 299 296 288 290 290 285 284 282 282 281 280 279 278 280 280 279 278 278 278 278 279 280 281 283 285 286 287 287
303 303 304 307 309 309 302 294 288 293 309 289 290 294 298 301 307 305 285 284 282 280 279 279 279 279 278 276 276 278 277 276 276 275 276 277 277 278 279 282 284 285 285 286
306 308 307 305 307 302 286 285 288 309 301 284 285 288 290 301 291 284 281 279 279 279 277 276 277 277 276 274 274 275 275 274 273 273 274 274 275 276 277 279 281 282 283 284
306 304 303 305 306 304 280 288 298 287 281 282 282 284 284 283 282 280 279 277 276 276 274 274 275 275 273 272 272 272 272 271 270 271 271 272 273 274 276 276 277 279 282 284
300 288 291 288 287 279 278 279 278 279 279 278 279 280 280 279 278 277 276 275 274 273 272 271 272 272 271 269 269 269 268 268 268 269 269 270 271 273 273 274 275 276 280 283
284 277 286 284 279 277 276 276 276 276 276 275 275 276 276 275 276 275 274 273 271 271 270 269 269 269 269 267 267 266 266 266 266 267 268 269 270 270 271 271 273 275 279 280
275 276 279 280 277 275 274 274 274 273 274 274 273 272 272 273 271 272 271 270 269 268 268 267 267 267 266 265 265 265 264 264 265 266 267 267 267 268 268 269 270 274 273 274
272 272 278 279 274 275 273 272 272 271 271 271 271 271 269 269 269 269 269 267 267 267 266 266 265 265 264 264 264 264 264 263 263 264 265 265 265 265 267 268 269 269 271 274
Wind_Speed
6 4 13 10 11 1 5 5 5 3 3 4 8 10 18 8 6 10 11 10 10 12 16 26 27 27 25 23 21 21 21 22 21 24 24 25 29 30 35 38 39 37 36 36
6 22 7 9 8 7 2 4 4 3 3 5 2 10 16 11 9 16 17 12 13 11 10 19 24 23 22 24 25 23 21 21 21 24 27 27 21 28 35 35 36 38 39 39
16 3 17 10 9 12 13 6 3 1 2 2 5 10 7 8 6 8 11 14 9 15 12 11 16 21 19 20 22 23 20 20 23 27 27 26 23 21 22 28 33 36 36 38
14 19 8 5 16 15 13 10 5 3 4 4 2 11 7 4 7 5 8 8 12 10 10 10 11 20 17 11 10 13 17 20 23 24 27 29 25 23 29 29 32 32 33 33
11 11 13 11 12 15 5 9 13 6 5 2 6 3 4 2 5 5 7 9 9 10 10 10 10 13 15 13 13 14 16 18 20 21 23 28 29 28 32 26 27 29 30 29
23 2 16 13 9 18 7 6 5 3 4 8 10 10 21 11 8 6 6 8 8 7 7 7 11 9 11 10 9 11 13 15 15 17 20 24 28 29 25 27 25 26 27 28
11 10 2 7 7 7 7 8 3 4 6 10 9 7 25 4 4 4 9 9 7 7 5 5 4 3 4 6 7 5 4 3 3 7 11 17 22 25 27 27 26 26 27 28
14 11 19 5 10 9 18 13 6 9 7 7 7 11 13 6 13 13 9 8 5 4 3 4 4 9 9 9 9 11 12 12 11 8 3 3 9 16 21 23 25 26 27 28
8 10 2 9 8 16 11 14 12 4 2 2 5 7 9 7 7 5 10 13 3 1 3 6 6 11 12 11 10 10 11 12 13 12 9 8 4 2 9 15 19 22 24 26
2 2 5 19 6 11 13 13 9 9 7 9 5 4 11 1 8 8 7 8 5 6 7 6 6 10 12 13 13 14 15 16 15 14 12 10 8 5 5 6 8 11 15 19
16 4 3 10 16 21 6 10 5 4 6 7 3 8 7 13 8 8 9 9 8 8 7 6 6 11 13 13 14 14 16 16 16 16 15 15 14 12 8 8 10 12 13 14
13 7 14 15 4 22 25 18 17 8 12 7 2 11 3 8 8 7 8 8 7 7 6 7 11 13 11 11 12 13 13 14 13 12 11 13 13 14 14 13 14 15 16 15
15 7 8 7 2 2 14 19 19 19 2 16 10 6 6 5 5 6 8 7 6 7 7 6 6 7 10 10 11 11 12 13 13 13 12 13 16 16 17 17 16 15 17 18
20 25 16 9 3 3 14 16 19 21 13 13 12 14 14 5 8 8 7 11 13 8 8 6 5 5 9 10 10 11 13 12 12 12 14 15 16 16 16 18 17 16 17 19
5 14 20 23 9 3 5 19 25 23 25 15 21 17 20 17 14 7 11 10 9 11 9 6 5 4 8 8 7 6 6 9 11 13 13 15 17 15 15 15 17 18 19 19
6 11 14 18 19 23 25 8 15 21 23 20 20 10 18 22 6 7 10 11 12 10 8 7 6 7 6 5 2 4 9 14 14 13 15 15 17 16 15 16 18 18 18 19
6 9 12 15 16 18 16 20 17 17 21 20 20 24 23 6 7 10 11 15 15 10 8 7 6 6 5 6 6 7 11 11 12 13 15 14 18 21 19 19 18 17 17 18
5 10 11 12 5 19 7 4 17 24 21 18 19 15 18 18 4 4 3 9 10 12 10 8 8 7 6 6 9 10 12 13 13 14 15 19 22 23 22 21 20 20 19 20
16 7 10 8 12 2 4 5 2 9 26 23 18 23 25 5 4 1 6 8 9 9 11 11 8 6 6 9 12 10 11 11 11 12 13 16 18 19 21 17 18 18 20 21
14 17 15 2 9 8 4 2 5 7 14 5 7 6 5 12 7 8 7 10 12 15 13 10 8 8 9 12 13 9 10 12 15 19 21 22 21 21 22 20 19 21 19 21
3 4 14 5 3 5 7 14 7 8 3 7 7 8 5 5 3 12 12 13 15 14 14 11 10 11 11 15 14 11 11 13 15 17 17 17 16 17 18 20 21 22 22 23
4 3 2 3 2 9 15 2 3 5 9 8 10 11 13 13 12 12 12 12 13 14 15 15 12 12 11 15 13 13 11 14 15 15 18 19 19 19 20 24 25 23 22 21
3 2 3 3 2 7 10 10 12 12 9 10 10 11 11 12 12 11 10 11 14 16 15 15 14 9 11 14 15 15 16 17 17 19 21 22 22 19 21 21 24 24 20 20
3 6 2 4 5 7 9 12 13 13 11 11 12 12 11 12 11 11 10 10 13 15 15 15 15 15 14 15 14 14 16 17 19 20 19 20 21 22 19 19 18 19 17 20
2 6 3 5 7 6 11 11 9 10 10 10 12 14 13 12 11 10 9 10 13 12 13 13 14 14 13 13 14 17 16 16 18 18 18 19 19 20 22 18 20 18 21 21
5 4 1 2 4 5 7 7 9 7 7 9 11 12 14 12 10 11 8 10 10 10 11 11 11 13 16 16 17 19 18 16 17 17 18 19 21 22 21 22 25 21 20 19
Wind_Direction
186 193 215 191 205 92 154 171 189 181 244 183 228 249 256 231 233 251 247 250 255 250 259 267 264 262 264 262 264 262 254 256 246 238 235 234 233 236 242 248 252 252 250 248
180 229 170 161 186 213 162 190 222 263 231 194 234 257 266 236 225 224 241 242 241 249 263 262 260 258 256 256 259 258 256 259 254 247 242 239 242 246 250 253 254 254 252 250
209 271 171 167 178 205 222 198 144 168 9 181 299 270 215 261 206 206 225 234 236 239 243 256 264 264 265 260 256 259 264 266 264 260 251 244 239 243 246 245 252 254 253 252
230 225 158 185 204 185 217 195 148 130 67 243 46 279 210 212 254 227 237 222 235 246 248 251 258 271 266 277 282 269 267 266 265 262 251 243 227 229 243 245 256 258 259 254
211 164 186 203 203 186 229 151 184 163 182 15 231 280 248 146 267 259 254 252 246 239 242 260 255 269 295 299 292 283 276 273 266 261 253 247 238 240 254 253 257 260 262 260
221 220 184 192 161 181 138 88 71 102 141 237 231 206 272 239 216 213 223 230 245 252 243 253 279 292 298 302 285 277 269 268 268 258 251 248 248 250 248 254 253 258 261 266
215 209 230 153 152 166 161 139 155 207 210 238 161 173 247 296 117 189 228 236 242 233 250 273 287 305 102 78 79 90 96 56 283 256 247 248 251 256 257 263 262 263 261 259
205 205 204 177 185 174 194 183 165 202 207 238 156 221 244 225 223 254 203 245 258 269 240 232 178 135 114 102 87 90 84 75 68 70 62 280 262 260 264 267 270 270 270 270
193 226 196 186 181 159 186 209 199 115 125 73 208 280 297 225 238 252 215 243 286 332 126 128 123 124 114 97 80 77 73 66 58 53 56 60 59 309 281 277 276 276 278 279
239 269 204 197 163 207 178 168 190 213 195 221 244 255 236 218 241 237 257 251 172 158 129 130 118 119 106 102 95 88 77 68 61 55 48 39 29 19 349 319 305 294 287 286
228 214 224 156 200 195 165 192 209 193 203 208 229 242 189 226 222 215 222 221 183 158 155 140 120 116 109 100 85 73 62 56 52 50 47 44 39 31 21 3 340 321 308 301
209 224 226 209 227 210 199 196 192 199 201 213 234 247 185 228 228 204 203 179 164 164 165 154 150 134 111 90 74 61 56 50 40 36 38 27 19 17 16 19 11 356 340 323
201 221 229 172 246 266 219 209 202 224 78 205 211 232 180 179 156 209 183 172 180 169 160 165 145 131 111 88 67 52 41 39 35 29 27 30 17 11 5 359 1 357 352 348
321 234 247 231 240 147 204 207 206 206 222 224 225 246 252 225 217 215 191 179 187 176 175 166 147 117 85 69 61 42 25 16 27 24 15 13 8 1 0 351 353 354 352 348
243 232 231 243 233 264 273 215 213 215 220 222 225 216 244 244 228 193 206 184 160 186 176 160 133 93 75 55 36 40 31 11 17 25 18 1 356 353 352 346 348 348 350 343
218 254 230 246 245 249 251 236 236 211 223 232 245 235 229 253 146 194 199 184 191 178 157 131 106 90 69 50 26 2 26 20 16 9 6 2 349 352 347 344 343 341 338 339
276 278 229 236 232 247 256 231 215 226 226 218 227 232 244 245 205 207 202 197 192 160 139 124 108 96 69 20 12 11 26 20 17 10 7 1 355 356 352 345 336 333 329 329
241 278 292 237 206 238 224 223 222 227 231 229 230 245 245 239 202 97 353 188 162 145 133 121 109 93 55 18 5 23 25 21 11 7 0 358 356 350 347 343 333 331 328 321
211 214 265 223 226 212 284 289 260 203 241 229 222 231 239 98 86 32 33 56 103 101 101 97 89 84 64 24 11 22 22 13 7 358 350 350 347 341 342 328 320 323 326 329
210 217 221 202 214 223 221 144 11 322 253 21 357 343 360 152 201 219 102 89 83 82 72 73 67 60 45 20 9 15 15 6 0 349 345 349 347 342 338 336 323 323 321 315
149 231 202 201 206 270 14 319 314 195 250 30 31 9 275 202 59 98 95 76 76 74 61 50 51 54 32 22 5 5 7 4 344 335 332 328 325 322 330 332 322 322 317 314
179 190 239 138 157 254 356 277 238 3 40 41 37 34 73 85 82 78 76 73 61 50 39 34 35 35 28 21 0 359 357 339 330 328 324 325 331 333 331 332 334 326 318 317
179 350 177 48 80 55 34 40 30 41 51 40 51 46 59 70 64 59 55 52 45 37 28 20 23 3 24 13 6 354 335 334 332 330 331 332 333 331 331 329 323 324 319 316
72 14 67 142 68 66 45 44 36 30 43 42 44 47 58 61 49 55 46 36 32 27 23 8 9 358 2 358 356 342 336 335 333 331 333 332 328 325 326 325 322 314 317 315
333 319 38 78 135 125 55 35 34 30 32 51 57 52 44 53 48 50 44 32 27 16 14 6 5 336 341 337 340 350 341 339 335 335 333 329 324 322 324 323 314 312 306 303
3 24 295 109 22 79 71 28 37 39 42 51 57 58 52 45 45 36 38 24 15 7 2 356 340 334 335 342 335 348 346 340 338 332 329 326 324 324 322 317 312 311 304 305